Regional Weather Roundup
Issued by NWS Sioux Falls, SD

Home | Current Version | Previous Version | Text Only | Print | Product List | Glossary On
Versions: 1 2 3 4 5 6 7 8 9 10 11 12 13 14 15 16 17 18 19 20 21 22 23 24 25 26 27 28 29 30 31 32 33 34 35 36 37 38 39 40 41 42 43 44 45 46 47 48 49 50
000
ASUS43 KFSD 201902
RWRFSD

WEATHER ROUNDUP FOR SE SOUTH DAKOTA/SW MINNESOTA/NW IOWA
NATIONAL WEATHER SERVICE SIOUX FALLS SD
200 PM CDT SUN APR 20 2014

NOTE: "FAIR" INDICATES FEW OR NO CLOUDS BELOW 12,000 FEET WITH NO
SIGNIFICANT WEATHER AND OR OBSTRUCTIONS TO VISIBILITY.


SDZ038>040-050-052>070-202000-
SOUTHEAST SOUTH DAKOTA

CITY           SKY/WX    TMP DP  RH WIND       PRES   REMARKS
CHAMBERLAIN      N/A     77  29  17 SE14      29.92F
HURON          SUNNY     74  27  17 SE9G17    29.93F
MADISON        FAIR      73  28  19 SE15G22   29.96F
MITCHELL       SUNNY     78  35  21 E12G20    29.94F
SIOUX FALLS    MOSUNNY   76  46  34 SE10      29.95F
WINNER         FAIR      78  37  22 S16G24    29.92F
YANKTON        MOSUNNY   73  48  40 SE8       29.94F
$$

MNZ071-072-080-081-089-090-097-098-202000-
SOUTHWEST MINNESOTA

CITY           SKY/WX    TMP DP  RH WIND       PRES   REMARKS
FAIRMONT       SUNNY     70  50  49 E8        30.00F
JACKSON        SUNNY     72  45  37 E3        29.99S
LUVERNE        SUNNY     75  41  29 E10G17    29.96F
MARSHALL       SUNNY     72  37  28 E9          N/A
MONTEVIDEO     SUNNY     73  43  33 S9        29.99F
PIPESTONE      SUNNY     73  28  19 SE12      29.97F
REDWOOD FALLS  SUNNY     74  33  22 E12G17    29.98F
TRACY          SUNNY     73  33  22 E10       29.99S
WINDOM         SUNNY     73  43  33 E10G18    29.98F
WORTHINGTON    MOSUNNY   72  45  37 SE10      30.00F
$$

IAZ001>003-012>014-020>022-031-032-NEZ013-014-SDZ071-202000-
NORTHWEST IOWA

CITY           SKY/WX    TMP DP  RH WIND       PRES   REMARKS
CHEROKEE       SUNNY     76  56  49 S6        29.95F
DENISON        MOSUNNY   79  52  38 SW9G20    29.94F
ESTHERVILLE    SUNNY     73  52  47 S9        29.97F
SHELDON        MOSUNNY   73  48  40 E9        29.94F
SIOUX CITY     PTSUNNY   78  54  43 VRB7      29.93F
SPENCER        MOSUNNY   74  52  46 VRB6      29.96F
STORM LAKE     MOSUNNY   75  54  46 S10G18    29.97F
$$

ABBREVIATIONS USED IN REMARKS
   TC - TEMPERATURE IN CELSIUS
  WCI - WIND CHILL INDEX
   HX - HEAT INDEX
  VSB - VISIBILITY




USA.gov is the U.S. government's official web portal to all federal, state and local government web resources and services.